This demonstration page uses our WeatherBlox Daily Observations layout. Learn more.

Left ArrowRight Arrow

47.50024, -111.30081

Hourly Observations for April 5, 2022

Temp ( °F °C ) Dew Point ( °F °C ) Humidity (%) Winds ( mph kmh ) Pressure ( in mb ) Visibility ( mi km ) Precip ( " mm )
12:53 am 00:53 Clear 33 0.6 18 -7.8 54 54 WSW 26 43 29.43 997 10 16 0.00 0.00
1:53 am 01:53 Clear 33 0.6 17 -8.3 52 52 WSW 26 43 29.42 996 10 16 0.00 0.00
2:53 am 02:53 Clear 33 0.6 18 -7.8 54 54 WSW 24 39 29.43 997 10 16 0.00 0.00
3:53 am 03:53 Clear 32 0 15 -9.4 50 50 WSW 21 33 29.47 998 10 16 0.00 0.00
4:53 am 04:53 Clear 31 -0.6 15 -9.4 52 52 WSW 22 35 29.52 1000 10 16 0.00 0.00
5:53 am 05:53 Clear 31 -0.6 14 -10 49 49 WSW 23 37 29.58 1002 10 16 0.00 0.00
6:53 am 06:53 Clear 32 0 14 -10 47 47 W 22 35 29.61 1003 10 16 0.00 0.00
7:53 am 07:53 Sunny 33 0.6 13 -10.6 43 43 W 24 39 29.67 1005 10 16 0.00 0.00
8:53 am 08:53 Sunny 35 1.7 12 -11.1 38 38 W 26 43 29.70 1006 10 16 0.00 0.00
9:53 am 09:53 Sunny 39 3.9 10 -12.2 30 30 W 38 61 29.70 1006 10 16 0.00 0.00
10:53 am 10:53 Sunny 42 5.6 10 -12.2 27 27 W 36 57 29.71 1006 10 16 0.00 0.00
11:53 am 11:53 Sunny 45 7.2 9 -12.8 23 23 W 39 63 29.73 1007 10 16 0.00 0.00
12:53 pm 12:53 Sunny 45 7.2 9 -12.8 23 23 W 38 61 29.77 1008 10 16 0.00 0.00
1:53 pm 13:53 Sunny 46 7.8 7 -13.9 20 20 W 39 63 29.79 1009 10 16 0.00 0.00
2:53 pm 14:53 Sunny 46 7.8 8 -13.3 21 21 W 36 57 29.82 1010 10 16 0.00 0.00
3:53 pm 15:53 Sunny 46 7.8 9 -12.8 22 22 W 36 57 29.86 1011 10 16 0.00 0.00
4:53 pm 16:53 Sunny 45 7.2 8 -13.3 22 22 W 35 56 29.89 1012 10 16 0.00 0.00
5:53 pm 17:53 Sunny 44 6.7 9 -12.8 24 24 W 37 59 29.93 1013 10 16 0.00 0.00
6:53 pm 18:53 Sunny 42 5.6 9 -12.8 25 25 W 33 54 29.96 1015 10 16 0.00 0.00
7:53 pm 19:53 Sunny 38 3.3 11 -11.7 33 33 W 30 48 30.01 1016 10 16 0.00 0.00
8:53 pm 20:53 Clear 35 1.7 12 -11.1 38 38 W 21 33 30.05 1018 10 16 0.00 0.00
9:53 pm 21:53 Mostly Clear 35 1.7 13 -10.6 40 40 W 23 37 30.07 1018 10 16 0.00 0.00
10:53 pm 22:53 Cloudy 35 1.7 14 -10 42 42 W 22 35 30.08 1019 10 16 0.00 0.00
11:53 pm 23:53 Clear 34 1.1 15 -9.4 46 46 W 20 31 30.10 1019 10 16 0.00 0.00

Powered by AerisWeather